Simultaneous Nadir Overpasses (SNOs) Predictions

Prediction of SNOs between METOP-A and NOAA-19 Satellite Orbit:

Table of predicted SNOs for the next 14.0 days since TLE Epoch: 8/23/2019
Index Date (METOP-A) Time (METOP-A) Lat,Lon (METOP-A) SZA (METOP-A ) Date (NOAA-19) Time (NOAA-19) Lat,Lon (NOAA-19) SZA (NOAA-19 ) Distance(km) Time Diff (sec)
1 08/31/2019 22:47:05 79.90,-149.26 71.62 08/31/2019 22:46:03 79.93,-149.30 71.63 2.50 62
2 08/31/2019 23:37:46 -79.92, 18.24 108.35 08/31/2019 23:36:57 -79.91, 18.22 108.37 1.94 49
3 09/01/2019 00:28:27 79.89,-174.71 71.63 09/01/2019 00:28:03 79.91,-174.56 71.65 3.17 24
4 09/01/2019 01:19:08 -79.91, -7.21 108.34 09/01/2019 01:18:58 -79.91, -7.35 108.34 2.77 10
5 09/01/2019 02:09:48 79.91, 160.14 71.68 09/01/2019 02:10:03 79.89, 160.17 71.66 2.91 15
6 09/01/2019 03:00:30 -79.90, -32.65 108.33 09/01/2019 03:00:58 -79.89, -32.61 108.33 1.15 28
7 09/01/2019 03:51:10 79.90, 134.69 71.69 09/01/2019 03:52:04 79.89, 134.60 71.69 2.08 54




NCC Satellite Simultaneous Nadir Overpasses (SNOs) Prediction Service
